This demonstration page uses our WeatherBlox Daily Observations layout. Learn more.

Left ArrowRight Arrow

39.92423, -83.80882

Hourly Observations for July 23, 2021

Temp ( °F °C ) Dew Point ( °F °C ) Humidity (%) Winds ( mph kmh ) Pressure ( in mb ) Visibility ( mi km ) Precip ( " mm )
12:56 am 00:56 Clear 61 16 N/A N/A N N/A 30.21 1023 10 16 N/A
1:56 am 01:56 Clear 61 16 N/A N/A N N/A 30.20 1023 10 16 N/A
2:56 am 02:56 Clear 63 17 N/A N/A ENE 3 6 30.19 1022 10 16 N/A
3:56 am 03:56 Clear 63 17 N/A N/A N N/A 30.18 1022 10 16 N/A
4:56 am 04:56 Clear 63 17 N/A N/A E 3 6 30.18 1022 10 16 N/A
5:56 am 05:56 Clear 63 17 N/A N/A N N/A 30.19 1022 10 16 N/A
6:56 am 06:56 Sunny 61 16 N/A N/A N N/A 30.21 1023 10 16 N/A
7:56 am 07:56 Sunny 63 17 N/A N/A N N/A 30.22 1023 10 16 N/A
8:56 am 08:56 Sunny 68 20 64 17.8 87 87 SE 3 6 30.22 1023 10 16 N/A
9:56 am 09:56 Sunny 72 22.2 64 17.8 76 76 S 3 6 30.22 1023 10 16 N/A
10:56 am 10:56 Sunny 75 23.9 63 17.2 66 66 E 3 6 30.22 1023 10 16 N/A
11:56 am 11:56 Sunny 75 23.9 62 16.7 64 64 VRB 3 6 30.22 1023 10 16 N/A
12:56 pm 12:56 Sunny 77 25 64 17.8 64 64 E 5 7 30.21 1023 10 16 N/A
1:56 pm 13:56 Sunny 75 23.9 64 17.8 69 69 N N/A 30.21 1023 10 16 N/A
2:56 pm 14:56 Sunny 77 25 65 18.3 66 66 VRB 3 6 30.18 1022 10 16 N/A
3:56 pm 15:56 Sunny 79 26.1 66 18.9 65 65 SSE 8 13 30.15 1021 10 16 N/A
4:56 pm 16:56 Sunny 79 26.1 67 19.4 67 67 SSW 6 9 30.14 1021 10 16 N/A
5:56 pm 17:56 Sunny 79 26.1 67 19.4 67 67 WSW 6 9 30.14 1021 10 16 N/A
6:56 pm 18:56 Sunny 78 25.6 66 18.9 67 67 SSE 6 9 30.12 1020 10 16 N/A
7:56 pm 19:56 Sunny 75 23.9 68 20 79 79 SSE 6 9 30.12 1020 10 16 N/A
8:56 pm 20:56 Sunny 71 21.7 68 20 90 90 SSE 7 11 30.11 1020 10 16 N/A
9:56 pm 21:56 Clear 69 20.6 69 20.6 100 100 SSE 7 11 30.11 1020 10 16 N/A
10:56 pm 22:56 Clear 70 21.1 67 19.4 90 90 SSE 7 11 30.11 1020 10 16 N/A
11:56 pm 23:56 Mostly Cloudy 70 21.1 66 18.9 87 87 S 6 9 30.11 1020 10 16 N/A

Powered by AerisWeather